LogoCoinalyze
    Ad-Free Version Inicio Mercados Tasas de Financiamiento
    Datos de futuros
    • Datos agregados (Monedas)
    • Gráficos individuales
    • Gráficos globales
    Alertas
    TA
    Bitcoin Ethereum BNB Ripple Tron ZCash Dogecoin Monero UNUS SED LEO Chainlink Cardano Stellar Lumens Bitcoin Cash Litecoin Hedera Cronos Polkadot Ethereum Classic Algorand Quant Cosmos VeChain Dash Bitcoin SV BitTorrent Terra Decred Tezos Iota The Graph THETA Decentraland NEO Chiliz MultiversX Golem Basic Attention Token Horizen Qtum 0x DigiByte Beam RIF Token FTX Token Holo FUNToken Zilliqa Ontology aelf Nano Enjin Coin Ravencoin Mask Network Siacoin Verge Status WINk Waves IoTeX iExec RLC Power Ledger Steem Kyber Network Crystal Lisk Ark Ardor IOST WOO Network WAX Icon Storj Wanchain Loopring Bitcoin Diamond AdEx Bitcoin Gold Augur OmiseGO NEM MonaCoin BitShares Ren Komodo V Systems Nuls Mithril SOLVE Maker EOS Aion Nebulas HedgeTrade Bread Fetch.ai TomoChain Polygon Fantom Waltonchain GXChain Bytom Metaverse ETP MaidSafeCoin QASH
    Ordenar por:
    Más
    • API
    • Patrones de velas
    • Donar
    • Contacto
    • Mapa del Sitio
    • Privacy Policy
    • Disclaimer
    • Theme:
    Español
    • English
    • Français
    • Русский
    • Deutsch
    • Türkçe
    • Nederlands
    • Português (BR)
    • 한국어
    • 简体中文
    • 日本語
     
    Iniciar sesión / Registrar
    Markets/ Pepe/ PEPE a USDC/ PEPEUSDC Binance
    Trades
    WL
    Chat
    Estad.
    Noticias
    ⦷
    AAA
    0.00000339 2052839.00000000 11:11:00
    0.00000340 1010436.00000000 11:10:57
    0.00000340 337931.00000000 11:10:48
    0.00000340 1010436.00000000 11:10:48
    0.00000340 114244334.00000000 11:09:56
    0.00000340 33577810.00000000 11:09:56
    0.00000340 131609931.00000000 11:09:56
    0.00000340 84068100.00000000 11:09:56
    0.00000340 25200000.00000000 11:09:56
    0.00000340 675800.00000000 11:09:42
    0.00000340 10000000.00000000 11:09:31
    0.00000340 1010436.00000000 11:09:04
    0.00000340 1013793.00000000 11:09:00
    0.00000340 26212674.00000000 11:08:55
    0.00000340 166274390.00000000 11:08:55
    0.00000339 3755524.00000000 11:07:54
    0.00000339 3252971.00000000 11:07:29
    0.00000339 3691200.00000000 11:07:11
    0.00000339 1457482.00000000 11:06:51
    0.00000339 41483936.00000000 11:04:47
    0.00000340 94913793.00000000 11:04:08
    0.00000340 17448224.00000000 11:03:09
    0.00000340 1065679.00000000 11:02:52
    0.00000340 2500000.00000000 11:02:51
    0.00000340 505605451.00000000 11:02:34
    0.00000340 1011555.00000000 11:02:23
    0.00000340 11612324.00000000 11:02:12
    0.00000340 117209319.00000000 11:02:06
    0.00000340 1013793.00000000 11:01:14
    0.00000340 224596570.00000000 11:01:14
    0.00000340 337931.00000000 11:01:03
    0.00000340 25875862.00000000 11:01:03
    0.00000340 226316681.00000000 11:01:03
    0.00000340 25875862.00000000 11:00:48
    0.00000340 377117.00000000 10:58:52
    0.00000341 439882697.00000000 10:57:45
    0.00000340 69946469.00000000 10:57:42
    0.00000340 251078519.00000000 10:57:42
    0.00000340 212062305.00000000 10:57:37
    0.00000340 31367263.00000000 10:57:37
    0.00000340 4702589.00000000 10:57:19
    0.00000340 27371120.00000000 10:57:19
    0.00000340 104367727.00000000 10:57:19
    0.00000339 4426050.00000000 10:56:25
    0.00000339 115945334.00000000 10:54:21
    0.00000339 4210157.00000000 10:54:13
    0.00000339 238905504.00000000 10:53:10
    0.00000338 1018309.00000000 10:51:39
    0.00000338 66.00000000 10:51:30
    0.00000338 55260000.00000000 10:51:30
    0.00000338 10484635.00000000 10:51:29
    0.00000338 49476520.00000000 10:51:19
    0.00000338 25200000.00000000 10:51:18
    0.00000339 3827824.00000000 10:50:48
    0.00000339 3350370.00000000 10:50:46
    0.00000338 3256454.00000000 10:50:34
    0.00000338 238038900.00000000 10:50:34
    0.00000338 355030.00000000 10:50:29
    0.00000337 1000000000.00000000 10:50:29
    0.00000337 9161337.00000000 10:50:16
    0.00000338 54900000.00000000 10:50:05
    0.00000338 337931.00000000 10:50:03
    0.00000338 368047214.00000000 10:50:03
    0.00000339 22950000.00000000 10:49:55
    0.00000339 37731416.00000000 10:49:55
    0.00000339 196400000.00000000 10:49:47
    0.00000339 26213793.00000000 10:49:47
    0.00000339 86176471.00000000 10:49:47
    0.00000339 1172088945.00000000 10:49:47
    0.00000340 336819.00000000 10:49:26
    0.00000340 30086500.00000000 10:49:26
    0.00000340 7675478.00000000 10:47:42
    0.00000340 366959.00000000 10:46:52
    0.00000340 13023987.00000000 10:45:46
    0.00000340 10443758.00000000 10:44:04
    0.00000341 516943.00000000 10:42:52
    0.00000340 26212674.00000000 10:42:06
    0.00000340 102669000.00000000 10:42:06
    0.00000340 70758000.00000000 10:42:06
    0.00000340 8721763.00000000 10:39:11
    0.00000340 381802873.00000000 10:39:06
    0.00000340 2648864.00000000 10:38:55
    0.00000340 15540900.00000000 10:38:14
    0.00000340 1986605.00000000 10:37:24
    0.00000340 3008853.00000000 10:37:20
    0.00000340 16353694.00000000 10:36:38
    0.00000340 1013793.00000000 10:36:20
    0.00000340 2000000.00000000 10:35:43
    0.00000340 1469243.00000000 10:34:52
    0.00000340 6142506.00000000 10:34:47
    0.00000340 336909.00000000 10:33:54
    0.00000340 86241100.00000000 10:33:54
    0.00000340 1013793.00000000 10:33:27
    0.00000340 96475177.00000000 10:33:27
    0.00000340 312086715.00000000 10:33:13
    0.00000340 1011555.00000000 10:33:07
    0.00000340 123162000.00000000 10:32:57
    0.00000340 127462600.00000000 10:32:57
    0.00000340 234506389.00000000 10:32:43
    0.00000340 5031732.00000000 10:32:02
    Desconectar
    AAA
    Ayuda
    🙂 🤣 😎 🤗 😛 😉 😜 🤑 🤔 😑 😴 😕 🙃 😲 😇 🙁 😢 😬 😟 😠 🕺 🏃 💪 ✌ 👌 👍 👎 👏 👋 🤝 🍺 🍻 🐋 🐟 🦈 🗽 🚄 ✈ 🛑 🚀 🏦 🌚 ⭐ 🌞 ⚡ 🏆 💰 💲 🔨 ❓ ❗ 💯 🔶 🏁
    ☺
    Iniciar sesión o Registrar y chatea
    24 Horas
    Variación
    -2.59%
    Volumen
    395,505,618,550
    Máx.
    0.00000355
    Mín.
    0.00000337
    7 Días
    Variación
    -11.26%
    Volumen
    3,300,200,348,501
    Máx.
    0.00000401
    Mín.
    0.00000337
    30 Días
    Variación
    +16.90%
    Volumen
    18,362,803,050,888
    Máx.
    0.00000455
    Mín.
    0.00000252
    Pepe price rallies 25% as whale demand and futures interest surge
    Key takeaways Pepe has gained 25% this week, including a combined 22% advance over the previous two days. Seven whale transactions worth more than $1 million each occurred Thursday, the highest...
    coinjournal.net
    Aug 21, 2026 08:41
    PEPE Supply on Exchanges Just Took a Massive Hit – What’s Next?
    A drop in PEPE exchange balances has added to bullish expectations despite muted trader interest.
    cryptopotato.com
    Aug 6, 2026 20:02
    PEPE Exchange Outflows Hit Nearly 2-Year High as Whales Accumulate
    Pepe (PEPE) recorded its largest single-day exchange outflow since November 2024, with 4.54 trillion tokens leaving trading platforms, signaling that holders are moving supply away from immediate...
    beincrypto.com
    Aug 6, 2026 04:57
    Meme Coin Based on White House Shooter Conspiracy Rallies 320%
    $HENRY surged 300% after a 2023 Pepe tweet appeared to name the White House shooter, fueling a viral time-travel meme. The post Meme Coin Based on White House Shooter Conspiracy Rallies 320%...
    beincrypto.com
    Apr 27, 2026 16:11
    PEPE surges 4% as market sentiment improves, eyes Key resistance breakout
    Key takeaways Pepe extends gains on Wednesday, stretching its rally from the 50-day EMA. Derivatives data show heightened retail activity as risk-on sentiment returns to the market. Pepe (PEPE) is...
    coinjournal.net
    Apr 22, 2026 11:44
    Why The PEPE Price Could Stage A 55X Rally To Reach New $0.0001 ATH
    The PEPE price has now started to edge back into bullish conversations after the recent inflows into the crypto market. The last time PEPE’s weekly chart printed the kind of structure now...
    newsbtc.com
    Apr 21, 2026 15:30
    Pepe (PEPE) surges 9%, drawing interest from whales
    Key takeaways PEPE is up 9% in the last 24 hours, making it one of the best performers among the top 50 cryptocurrencies by market cap. The rally comes amid renewed interest from whales and retail...
    coinjournal.net
    Apr 16, 2026 07:40
    Murad Says SPX6900 (SPX) Is Primed for a Rally — Is He Right This Time?
    Crypto influencer Murad Mahmudov claims SPX6900 (SPX) is stabilizing at the same market cap level where Dogecoin (DOGE) and Pepe (PEPE) consolidated before their explosive rallies. The...
    beincrypto.com
    Apr 5, 2026 21:36
    The Shiba Inu Of This Cycle: Analyst Shares Why It Is Better To Buy PEPE Now
    In the bull market cycle of 2021-2022, the Shiba Inu meme coin made waves in a way that changed the face of meme coins forever. This came after Dogecoin’s initial 36,000% rally, and Shiba Inu...
    newsbtc.com
    Apr 4, 2026 07:30
    PEPE Explodes by 18% Amid Altcoin Rally, BTC Tapped $74K: Market Watch
    The frog-themed meme coin is today's biggest gainer, followed by TAO, DOT, and BONK.
    cryptopotato.com
    Mar 16, 2026 10:56
    Should PEPE traders brace for volatility as short squeeze potential builds?
    The memecoin market has seen its collective market capitalization drop by 48% over the past year, and 6.9% over the past month, according to CoinMarketCap. According to Glassnode, the memecoin...
    ambcrypto.com
    Mar 7, 2026 18:00
    Simplemente teclea el comando en el chat. Sustituir nick1 por el apodo real.
    • /ignore nick1 Ignorar un usuario del chat
    • /unignore nick1 Dejar de ignorar un usuario del chat
    • /ignorelist Mostrar usuarios del chat que has ignorado